W5TTY Weather Reports


time (UTC)temp
F
wind
direction
speed
knots
gust
knots
rain 1hr
in
rain 24hr
in
rain mn
in
humidity
%
barometer
mb
20260507205324 66 46 4.3 7.8 0.00 0.00 0.00 83 1014.8
20260507204829 66 58 2.6 8.7 0.00 0.00 0.00 83 1015.0
20260507204318 66 28 5.2 9.6 0.00 0.00 0.00 83 1015.2
20260507203819 66 64 3.5 7.0 0.00 0.00 0.00 83 1015.4
20260507203324 66 37 1.7 9.6 0.00 0.00 0.00 83 1015.6
20260507202840 66 19 3.5 12.2 0.00 0.00 0.00 83 1015.9
20260507202325 66 11 4.3 9.6 0.00 0.00 0.00 83 1016.0
20260507201828 66 17 7.0 10.4 0.00 0.00 0.00 83 1015.7
20260507201337 66 11 6.1 11.3 0.00 0.00 0.00 83 1015.7
20260507200820 66 28 7.0 11.3 0.00 0.00 0.00 84 1015.8
20260507200328 66 355 4.3 10.4 0.00 0.00 0.00 84 1015.9
20260507195903 66 36 5.2 10.4 0.00 0.00 0.00 84 1016.0
20260507195318 66 67 3.5 11.3 0.00 0.00 0.00 84 1016.1
20260507194831 66 360 5.2 11.3 0.00 0.00 0.00 84 1016.5
20260507194357 66 50 4.3 10.4 0.00 0.00 0.00 84 1016.8
20260507193821 67 341 2.6 10.4 0.00 0.00 0.00 84 1016.8
20260507193327 66 336 6.1 10.4 0.00 0.00 0.00 85 1016.9
20260507192830 66 5 3.5 10.4 0.00 0.00 0.00 85 1017.2
20260507192335 66 26 5.2 13.0 0.00 0.00 0.00 85 1016.2
20260507191819 65 20 6.1 13.0 0.00 0.00 0.00 85 1016.9
20260507191334 65 54 7.8 12.2 0.00 0.00 0.00 85 1016.4
20260507190841 65 46 4.3 12.2 0.00 0.00 0.00 85 1016.5
20260507190325 65 62 4.3 12.2 0.00 0.00 0.00 85 1016.2
20260507185831 65 46 7.0 13.9 0.00 0.00 0.00 85 1016.2
20260507185335 66 22 7.0 12.2 0.00 0.00 0.00 85 1016.6
20260507184841 66 17 7.0 13.0 0.00 0.00 0.00 85 1016.6
20260507184352 66 29 6.1 13.0 0.00 0.00 0.00 86 1016.8
20260507183835 66 350 7.0 11.3 0.00 0.00 0.00 86 1017.1
20260507183320 65 31 3.5 10.4 0.00 0.00 0.00 86 1017.1
20260507182825 65 351 5.2 9.6 0.00 0.00 0.00 86 1017.4
20260507182329 64 339 6.1 10.4 0.00 0.00 0.00 86 1017.5
20260507181837 64 346 3.5 10.4 0.00 0.00 0.00 86 1016.7
20260507181321 64 32 7.0 10.4 0.00 0.00 0.00 86 1016.9
20260507180832 64 44 2.6 7.0 0.00 0.00 0.00 86 1017.4
20260507180342 65 56 2.6 7.8 0.00 0.00 0.00 86 1017.8
20260507175828 65 5 4.3 10.4 0.00 0.00 0.00 87 1018.1
20260507175332 64 314 5.2 10.4 0.00 0.00 0.00 87 1018.0
20260507174839 64 5 4.3 9.6 0.00 0.00 0.00 87 1017.9
20260507174319 64 27 5.2 9.6 0.00 0.00 0.00 87 1017.1
20260507173821 63 53 7.0 9.6 0.00 0.00 0.00 87 1017.2
20260507173333 63 63 4.3 10.4 0.00 0.00 0.00 87 1017.4
20260507172838 63 44 5.2 13.9 0.00 0.00 0.00 87 1017.1
20260507172320 62 10 7.8 11.3 0.00 0.00 0.00 87 1017.4
20260507171825 62 87 5.2 9.6 0.00 0.00 0.00 87 1017.0
20260507171328 61 59 5.2 11.3 0.00 0.00 0.00 87 1017.2
20260507170834 61 344 4.3 12.2 0.00 0.00 0.00 87 1017.4
20260507170319 61 20 5.2 12.2 0.00 0.00 0.00 87 1017.3
20260507165827 61 18 6.1 11.3 0.00 0.00 0.00 87 1017.4
20260507165331 61 51 6.1 10.4 0.00 0.00 0.00 87 1017.8
20260507164818 61 360 7.0 9.6 0.00 0.00 0.00 87 1017.5
20260507164321 61 12 3.5 7.8 0.00 0.00 0.00 87 1017.6
20260507163838 61 57 4.3 7.8 0.00 0.00 0.00 87 1017.8
20260507163344 61 350 2.6 7.0 0.00 0.00 0.00 87 1017.9
20260507162829 61 316 3.5 8.7 0.00 0.00 0.00 87 1018.3
20260507162333 61 348 3.5 8.7 0.00 0.00 0.00 87 1018.1
20260507161837 61 5 2.6 8.7 0.00 0.00 0.00 87 1017.9
20260507161351 60 18 5.2 9.6 0.00 0.00 0.00 87 1018.1
20260507160834 60 39 6.1 10.4 0.00 0.00 0.00 87 1017.7
20260507160344 60 348 7.8 11.3 0.00 0.00 0.00 87 1017.5
20260507155828 61 347 7.0 13.0 0.00 0.00 0.00 87 1017.6
20260507155336 60 11 7.0 13.0 0.00 0.00 0.00 88 1017.5
20260507154845 60 39 8.7 12.2 0.00 0.00 0.00 88 1017.3
20260507154330 60 312 7.0 12.2 0.00 0.00 0.00 88 1017.4
20260507153819 60 32 8.7 12.2 0.00 0.00 0.00 88 1017.2
20260507153327 60 355 7.0 13.0 0.00 0.00 0.00 88 1017.2
20260507152831 60 355 7.8 13.0 0.00 0.00 0.00 88 1017.2
20260507152337 60 355 8.7 15.6 0.00 0.00 0.00 88 1016.8
20260507151844 60 28 8.7 15.6 0.00 0.00 0.00 88 1016.9
20260507151327 60 34 8.7 12.2 0.00 0.00 0.00 88 1017.2
20260507150833 60 24 9.6 12.2 0.00 0.00 0.00 88 1017.4
20260507150323 59 335 6.1 12.2 0.00 0.00 0.00 88 1017.5
20260507145829 59 31 6.1 12.2 0.00 0.00 0.00 88 1017.4
20260507145339 59 32 7.0 12.2 0.00 0.00 0.00 88 1017.5
20260507144845 59 41 6.1 13.0 0.00 0.00 0.00 88 1018.0
20260507144327 59 351 7.0 12.2 0.00 0.00 0.00 88 1017.8
20260507143832 58 40 5.2 13.0 0.00 0.00 0.00 88 1017.8
20260507143319 58 19 5.2 14.8 0.00 0.00 0.00 88 1017.7
20260507142852 58 348 9.6 14.8 0.00 0.00 0.00 88 1017.6
20260507142331 58 344 8.7 13.0 0.00 0.00 0.00 88 1017.5
20260507141836 58 32 7.0 13.0 0.00 0.00 0.00 88 1017.4
20260507141323 58 360 7.0 12.2 0.00 0.00 0.00 88 1017.6
20260507140847 58 13 7.8 14.8 0.00 0.00 0.00 88 1017.4
20260507140334 58 29 7.0 14.8 0.00 0.00 0.00 88 1017.8
20260507135847 58 328 7.0 18.2 0.00 0.00 0.00 88 1018.1
20260507135329 58 5 8.7 18.2 0.00 0.00 0.00 88 1018.3
20260507134832 58 5 7.8 15.6 0.00 0.00 0.00 88 1018.3
20260507134338 58 329 7.8 15.6 0.00 0.00 0.00 88 1018.4
20260507133821 58 10 5.2 12.2 0.00 0.00 0.00 88 1018.2
20260507133333 58 349 6.1 12.2 0.00 0.00 0.00 88 1017.9
20260507132324 58 12 8.7 15.6 0.00 0.00 0.00 88 1017.5
20260507131338 57 33 8.7 16.5 0.00 0.00 0.00 87 1017.6
20260507130823 58 35 9.6 15.6 0.00 0.00 0.00 87 1017.6
20260507130327 58 340 8.7 15.6 0.00 0.00 0.00 87 1017.9
20260507125834 58 346 7.0 12.2 0.00 0.00 0.00 87 1017.8
20260507125318 58 33 6.1 15.6 0.00 0.00 0.00 87 1017.6
20260507124820 58 360 8.7 15.6 0.00 0.00 0.00 87 1017.5
20260507124322 58 5 7.0 12.2 0.00 0.00 0.00 87 1017.5
20260507123854 58 360 6.1 13.0 0.00 0.00 0.00 87 1017.6
20260507123321 58 333 5.2 13.0 0.00 0.00 0.00 87 1017.3
20260507122830 58 355 4.3 8.7 0.00 0.00 0.00 87 1017.1
20260507122336 58 37 3.5 7.8 0.00 0.00 0.00 87 1017.2
20260507121823 58 21 4.3 11.3 0.00 0.00 0.00 87 1017.3
20260507121328 58 45 6.1 11.3 0.00 0.00 0.00 87 1017.3
20260507120833 58 17 5.2 12.2 0.00 0.00 0.00 87 1017.4
20260507120335 58 344 4.3 13.9 0.00 0.00 0.00 87 1017.3
20260507115821 58 9 3.5 13.9 0.00 0.00 0.00 87 1017.0
20260507115321 58 11 7.0 13.9 0.00 0.00 0.00 87 1016.7
20260507114824 58 24 8.7 14.8 0.00 0.00 0.00 87 1016.4
20260507114356 59 41 8.7 14.8 0.00 0.00 0.00 87 1016.0
20260507113823 59 349 7.0 14.8 0.00 0.00 0.00 87 1016.0
20260507113328 59 5 4.3 13.0 0.00 0.00 0.00 87 1016.1
20260507112834 59 339 6.1 13.0 0.00 0.00 0.00 87 1016.0
20260507025326 62 5 6.1 11.3 0.00 0.00 0.00 85 1014.0
20260507024834 62 360 4.3 9.6 0.00 0.00 0.00 85 1013.9
20260507024335 62 346 5.2 10.4 0.00 0.00 0.00 85 1013.8
20260507023820 62 5 5.2 10.4 0.00 0.00 0.00 85 1013.6
20260507023322 62 355 4.3 12.2 0.00 0.00 0.00 85 1013.8
20260507022828 62 348 4.3 12.2 0.00 0.00 0.00 85 1013.5
20260507022328 62 349 5.2 11.3 0.00 0.00 0.00 85 1013.3
20260507021840 62 335 5.2 11.3 0.00 0.00 0.00 85 1013.3
20260507021346 62 346 4.3 8.7 0.00 0.00 0.00 85 1013.1
20260507020850 62 10 5.2 11.3 0.00 0.00 0.00 85 1013.2
20260507020335 62 355 5.2 11.3 0.00 0.00 0.00 85 1013.0
20260507015822 62 5 7.0 11.3 0.00 0.00 0.00 85 1013.0
20260507015324 62 355 6.1 11.3 0.00 0.00 0.00 85 1012.7
20260507014823 62 23 6.1 13.0 0.00 0.00 0.00 85 1012.9
20260507014329 62 355 5.2 13.0 0.00 0.00 0.00 85 1012.9
20260507013843 63 34 6.1 11.3 0.00 0.00 0.00 85 1012.7
20260507013318 63 25 6.1 12.2 0.00 0.00 0.00 85 1012.7
20260507012828 63 327 4.3 12.2 0.00 0.00 0.00 85 1012.5
20260507012333 63 13 5.2 8.7 0.00 0.00 0.00 85 1012.4
20260507011818 63 344 4.3 14.8 0.00 0.00 0.00 85 1012.2
20260507011327 63 360 5.2 14.8 0.00 0.00 0.00 85 1012.1
20260507010831 63 346 7.0 13.0 0.00 0.00 0.00 85 1012.1
20260507010318 63 314 8.7 13.0 0.00 0.00 0.00 85 1012.0
20260507005826 63 344 7.0 10.4 0.00 0.00 0.00 85 1012.0
20260507005327 63 349 7.0 10.4 0.00 0.00 0.00 85 1011.7
20260507004829 63 312 4.3 9.6 0.00 0.00 0.00 85 1011.8
20260507004345 64 19 3.5 9.6 0.00 0.00 0.00 85 1011.7
20260507003829 64 323 4.3 13.0 0.00 0.00 0.00 85 1011.6
20260507003331 64 21 7.8 13.0 0.00 0.00 0.00 85 1011.5
20260507002834 64 344 7.0 12.2 0.00 0.00 0.00 85 1011.6
20260507002318 64 327 7.0 14.8 0.00 0.00 0.00 85 1011.6
20260507001824 64 318 8.7 14.8 0.00 0.00 0.00 85 1011.6
20260507001326 64 360 7.8 13.0 0.00 0.00 0.00 85 1011.6
20260507000834 64 341 8.7 13.0 0.00 0.00 0.00 85 1011.6
20260507000321 64 305 6.1 13.0 0.00 0.00 0.00 85 1011.4
20260506235825 64 331 7.0 10.4 0.00 0.00 0.00 85 1011.3
20260506235328 65 329 6.1 13.0 0.00 0.00 0.00 85 1011.3
20260506234841 65 348 8.7 13.0 0.00 0.00 0.00 85 1011.2
20260506234326 65 298 7.0 12.2 0.00 0.00 0.00 85 1011.1
20260506233831 65 28 6.1 13.9 0.00 0.00 0.00 85 1011.2
20260506233319 66 333 8.7 13.9 0.00 0.00 0.00 85 1011.2
20260506232828 66 355 9.6 13.9 0.00 0.00 0.00 85 1011.0
20260506232332 66 263 9.6 13.0 0.00 0.00 0.00 85 1011.1
20260506231840 67 360 7.0 13.0 0.00 0.00 0.00 85 1011.1
20260506231331 67 327 8.7 13.0 0.00 0.00 0.00 85 1011.0
20260506230835 67 355 8.7 13.0 0.00 0.00 0.00 85 1011.1
20260506230343 67 17 5.2 11.3 0.00 0.00 0.00 86 1011.1
20260506225829 67 355 7.0 11.3 0.00 0.00 0.00 86 1011.0
20260506225333 68 325 7.0 11.3 0.00 0.00 0.00 86 1011.0
20260506224822 68 317 5.2 15.6 0.00 0.00 0.00 86 1010.9
20260506224328 68 336 7.0 14.8 0.00 0.00 0.00 86 1010.9
20260506223829 68 338 4.3 15.6 0.00 0.00 0.00 86 1010.9
20260506223336 68 355 6.1 15.6 0.00 0.00 0.00 86 1010.9
20260506222824 68 355 7.8 13.9 0.00 0.00 0.00 86 1010.8
20260506222326 69 340 7.8 13.9 0.00 0.00 0.00 86 1010.8
20260506221839 69 323 7.8 13.9 0.00 0.00 0.00 86 1010.8
20260506221318 70 317 7.0 13.0 0.00 0.00 0.00 86 1010.7
20260506220850 70 292 4.3 11.3 0.00 0.00 0.00 87 1010.6
20260506220336 70 279 5.2 13.0 0.00 0.00 0.00 87 1010.7
20260506215846 70 294 7.0 13.9 0.00 0.00 0.00 87 1010.7
20260506215329 70 321 7.8 13.9 0.00 0.00 0.00 86 1010.5
20260506214818 70 277 7.0 14.8 0.00 0.00 0.00 87 1010.5
20260506214346 70 330 7.0 14.8 0.00 0.00 0.00 87 1010.4
20260506213851 71 11 7.8 16.5 0.00 0.00 0.00 87 1010.5
20260506213337 71 309 7.8 16.5 0.00 0.00 0.00 87 1010.5
20260506212825 71 307 7.8 13.9 0.00 0.00 0.00 87 1010.4
20260506212327 71 347 7.0 13.9 0.00 0.00 0.00 87 1010.6
20260506211833 70 304 6.1 14.8 0.00 0.00 0.00 87 1010.7
20260506211346 70 328 8.7 14.8 0.00 0.00 0.00 87 1010.6
20260506210831 71 14 8.7 13.0 0.00 0.00 0.00 87 1010.6
20260506210339 71 317 7.0 13.9 0.00 0.00 0.00 87 1010.5
20260506205828 71 348 7.8 13.9 0.00 0.00 0.00 87 1010.6